Weather History for KDTN - March, 2014

Change the Weather History Date:

Monday, March 3, 2014

  Actual Average (KSHV) Record (KSHV)
Temperature  
Mean Temperature 30 °F 55 °F  
Max Temperature 35 °F 66 °F 82 °F (1974)
Min Temperature 24 °F 44 °F 15 °F (1943)
Degree Days  
Heating Degree Days 36 11  
Month to date heating degree days 33  
Since 1 July heating degree days 1915  
Cooling Degree Days 0 1  
Month to date cooling degree days 1  
Year to date cooling degree days 11  
Moisture  
Dew Point 24 °F    
Average Humidity 85    
Maximum Humidity 96    
Minimum Humidity 74    
Precipitation  
Precipitation 0.00 in 0.14 in 4.35 in (1945)
Month to date precipitation 0.43  
Year to date precipitation 9.38  
Snow  
Snow 0.00 in - - ()
Month to date snowfall  
Since 1 July snowfall  
Snow Depth -    
Sea Level Pressure  
Sea Level Pressure 30.31 in    
Wind  
Wind Speed 10 mph (NNW)    
Max Wind Speed 16 mph    
Max Gust Speed 24 mph    
Visibility 8 miles    
Events Snow    
T = Trace of Precipitation, MM = Missing Value Source: NWS Daily Summary

Daily Weather History Graph

Daily Weather History Graph

Search for Another Location

Airport or City:

Trip Planner

Search our weather history database for the weather conditions in past years. The results will help you decide how hot, cold, wet, or windy it might be!

Date:

Astronomy

Mar. 03, 2014 Rise Set
Actual Time 6:40 AM CST 6:13 PM CST
Civil Twilight 6:15 AM CST 6:38 PM CST
Nautical Twilight 5:47 AM CST 7:07 PM CST
Astronomical Twilight 5:18 AM CST 7:35 PM CST
Moon 7:59 AM CST (3/3) 9:05 PM CST (3/3)
Length of Visible Light 12h 23m
Length of Day
11h 33m
Waxing Crescent, 8% of the Moon is Illuminated
Mar 3
Waxing Crescent
Mar 8
First Quarter
Mar 16
Full
Mar 23
Last Quarter
Mar 30
New

Hourly Weather History & Observations

Time (CST) Temp. Windchill Dew Point Humidity Pressure Visibility Wind Dir Wind Speed Gust Speed Precip Events Conditions
12:19 AM 35.6 °F 29.2 °F 33.8 °F 93% 30.16 in 10.0 mi NW 8.1 mph - N/A   Overcast
12:36 AM 35.6 °F 27.1 °F 33.8 °F 93% 30.17 in 8.0 mi NW 12.7 mph - N/A   Overcast
12:53 AM 33.1 °F 23.4 °F 32.0 °F 96% 30.17 in 3.0 mi WNW 13.8 mph 19.6 mph N/A   Overcast
1:53 AM 30.0 °F 18.7 °F 28.0 °F 92% 30.19 in 5.0 mi WNW 16.1 mph 21.9 mph N/A   Overcast
2:53 AM 28.0 °F 16.5 °F 26.1 °F 92% 30.22 in 4.0 mi NW 15.0 mph 23.0 mph N/A   Overcast
3:53 AM 27.0 °F 15.6 °F 25.0 °F 92% 30.24 in 5.0 mi NW 13.8 mph 19.6 mph N/A   Overcast
4:53 AM 26.1 °F 15.6 °F 24.1 °F 92% 30.26 in 6.0 mi NW 11.5 mph 19.6 mph N/A   Overcast
5:53 AM 25.0 °F 12.6 °F 23.0 °F 92% 30.30 in 4.0 mi NW 15.0 mph 24.2 mph N/A   Overcast
6:40 AM 24.8 °F 13.4 °F 21.2 °F 86% 30.31 in 2.0 mi NW 12.7 mph 19.6 mph 0.00 in Snow Light Snow
6:50 AM 24.8 °F 14.0 °F 21.2 °F 86% 30.31 in 3.0 mi NW 11.5 mph - 0.00 in Snow Light Snow
6:53 AM 25.0 °F 14.8 °F 21.9 °F 88% 30.32 in 4.0 mi NW 10.4 mph - 0.00 in Snow Light Snow
7:20 AM 24.8 °F 14.0 °F 21.2 °F 86% 30.32 in 10.0 mi NW 11.5 mph - 0.00 in   Overcast
7:53 AM 25.0 °F 14.8 °F 23.0 °F 92% 30.35 in 5.0 mi NW 10.4 mph 18.4 mph 0.00 in   Overcast
8:53 AM 26.1 °F 17.6 °F 24.1 °F 92% 30.36 in 7.0 mi NW 8.1 mph - N/A   Overcast
9:53 AM 28.0 °F 20.8 °F 26.1 °F 92% 30.37 in 8.0 mi North 6.9 mph - N/A   Overcast
10:53 AM 28.0 °F 20.0 °F 25.0 °F 88% 30.37 in 10.0 mi NNW 8.1 mph - N/A   Overcast
11:53 AM 28.0 °F 20.0 °F 25.0 °F 88% 30.38 in 10.0 mi North 8.1 mph - N/A   Overcast
12:53 PM 28.0 °F 20.0 °F 25.0 °F 88% 30.36 in 10.0 mi North 8.1 mph - N/A   Overcast
1:51 PM 28.4 °F 19.7 °F 24.8 °F 86% 30.35 in 10.0 mi NNW 9.2 mph - N/A   Overcast
1:53 PM 28.0 °F 20.8 °F 24.1 °F 85% 30.35 in 10.0 mi North 6.9 mph - N/A   Overcast
2:53 PM 28.9 °F 19.2 °F 24.1 °F 82% 30.33 in 10.0 mi North 11.5 mph 16.1 mph N/A   Overcast
3:53 PM 28.9 °F 21.1 °F 24.1 °F 82% 30.34 in 10.0 mi North 8.1 mph 17.3 mph N/A   Overcast
4:18 PM 30.2 °F 20.2 °F 24.8 °F 80% 30.33 in 10.0 mi North 12.7 mph 17.3 mph N/A   Overcast
4:53 PM 30.0 °F 20.5 °F 24.1 °F 79% 30.34 in 10.0 mi North 11.5 mph 16.1 mph N/A   Overcast
5:53 PM 30.0 °F 22.4 °F 24.1 °F 79% 30.35 in 10.0 mi North 8.1 mph - N/A   Overcast
6:53 PM 30.0 °F 22.4 °F 24.1 °F 79% 30.33 in 10.0 mi North 8.1 mph - N/A   Overcast
7:20 PM 30.2 °F 25.4 °F 24.8 °F 80% 30.34 in 10.0 mi Variable 4.6 mph - N/A   Scattered Clouds
7:53 PM 30.0 °F 25.2 °F 24.1 °F 79% 30.34 in 10.0 mi North 4.6 mph - N/A   Clear
8:53 PM 28.9 °F 21.9 °F 21.9 °F 75% 30.32 in 10.0 mi NNE 6.9 mph - N/A   Clear
9:53 PM 28.0 °F 19.3 °F 21.0 °F 75% 30.33 in 10.0 mi NNE 9.2 mph - N/A   Clear
10:53 PM 26.1 °F 20.5 °F 19.9 °F 78% 30.33 in 10.0 mi NNE 4.6 mph - N/A   Partly Cloudy
11:06 PM 26.6 °F 19.1 °F 19.4 °F 74% 30.32 in 10.0 mi NNE 6.9 mph - N/A   Mostly Cloudy
11:53 PM 26.1 °F 17.6 °F 19.9 °F 78% 30.31 in 10.0 mi NE 8.1 mph - N/A   Mostly Cloudy